OBJECT C, 61229

Orbit data source: Space-Track

You're viewing an Uncataloged Satellite

Recently launched and/or uncataloged satellites may have evolving metadata. Metadata may include but not limited to: Owner, Maufacturer, Bus, Motor, and Mission.

OBJECT C, 61229 is a satellite owned by Wuhan daxue (CN) in SSO that was launched on Tue, 24 Sep 2024 UTC via a JIELONG-3 launch vehicle from the Yellow Sea Launch Area, China (YSLA). Unknown objects in Earth's orbit typically refer to objects detected orbiting the Earth but have not yet been identified or cataloged. These objects could be anything from previously untracked satellites, spent rocket stages, debris from satellite collisions, or even natural meteoroids temporarily captured by Earth's gravity.

Loading next visibility...
Identifier
61229, 2024-173C
Orbit
SSO
Country
Flag of CNCN / PRC
Related business
None
Manufacturer
Wuhan daxue
Mission
Operational Amateur Imaging
Bus & Motor
LUOJIA-4, Unknown motor
Mass
60 kg wet, 60 kg dry
Launch date (UTC)
2024-09-24 (11 months ago)
Launch vehicle
JIELONG-3
Launch site
Yellow Sea Launch Area, China (YSLA)
Object type
Unknown
Shape & HBR
Box + 1 Pan, 1.0 m
Radar Cross Section
3.032 m², Medium (>0.1 m² and < 1m²)

Expand to show TLE details & history
Last TLE update: 12 hours ago

TLE from 12 hours ago
0 OBJECT C
1 61229U 24173C   25241.98503963  .00024787  00000-0  79346-3 0  9994
2 61229  97.3701 317.8759 0017376 112.8105 247.4975 15.32238347 51890
Epoch: 2025-08-29T23:38Z
TLE epoch observation values (Epoch: 2025-08-29T23:38:27.424Z)
Latitude
0.00006°
Longitude
-15.16421°
Altitude
476.816 km
Speed
7.625 km/s
True Right ascension
21h 11m 30s
True Declination
0° 00' 00"
Sunlit
Object was in full shadow at epoch
Visualization orbit readout
Latitude
Unknown
Longitude
Unknown
Altitude
Unknown
Speed
Unknown
Apparent Right ascension
Unknown
Apparent Declination
Unknown
Sunlit
N/A
Visualization observer readout
Local Sidereal Time
02:56:05
Azimuth
Unknown
Elevation
Unknown
Doppler factor
Unknown
Orbital elements
Apogee altitude
477.976 km
Perigee altitude
454.191 km
Semi-major axis
6,844.221 km
Eccentricity
0.00174
Inclination
97.3701°
RAAN
317.8759°
Arg. of periapsis
112.8105°
True anomaly
247.3137°
Mean anomaly
247.4975°
Eccentric anomaly
247.40558°
Mean motion
3.83316 °/min
Orbital period
93.92 mins
BSTAR
0.00079346
Loading maneuver chart data...
Computing Atmospheric mass density...
Loading historical data...
Loading historical data...
Loading historical data...
Loading historical data...
Loading historical data...
Loading historical data...
Loading historical data...

Documentation

Showing up to 5 results
|